Weather History for KLGA - May, 2013

Change the Weather History Date:

Thursday, May 23, 2013

  Actual Average Record
Temperature  
Mean Temperature 72 °F 65 °F  
Max Temperature 81 °F 73 °F 94 °F (1964)
Min Temperature 63 °F 56 °F 45 °F (1963)
Degree Days  
Heating Degree Days 0 3  
Month to date heating degree days 96 116  
Since 1 July heating degree days 4405 4630  
Cooling Degree Days 7 3  
Month to date cooling degree days 41 32  
Year to date cooling degree days 41 40  
Growing Degree Days 22 (Base 50)    
Moisture  
Dew Point 63 °F    
Average Humidity 76    
Maximum Humidity 93    
Minimum Humidity 58    
Precipitation  
Precipitation 0.53 in 0.14 in 1.72 in (1979)
Month to date precipitation 4.29 2.70  
Year to date precipitation 13.71 16.60  
Snow  
Snow 0.00 in 0.00 in - ()
Month to date snowfall T 0.0  
Since 1 July snowfall 22.2 26.9  
Snow Depth 0.00 in    
Sea Level Pressure  
Sea Level Pressure 29.83 in    
Wind  
Wind Speed 10 mph (South)    
Max Wind Speed 21 mph    
Max Gust Speed 28 mph    
Visibility 9 miles    
Events Rain , Thunderstorm    
T = Trace of Precipitation, MM = Missing Value Source: NWS Daily Summary

Daily Weather History Graph

Daily Weather History Graph

Search for Another Location

Airport or City:

Trip Planner

Search our weather history database for the weather conditions in past years. The results will help you decide how hot, cold, wet, or windy it might be!

Date:

Astronomy

May. 23, 2013 Rise Set
Actual Time 5:31 AM EDT 8:13 PM EDT
Civil Twilight 4:59 AM EDT 8:45 PM EDT
Nautical Twilight 4:19 AM EDT 9:25 PM EDT
Astronomical Twilight 3:34 AM EDT 10:11 PM EDT
Moon 6:42 PM EDT (5/23) 4:15 AM EDT (5/23)
Length of Visible Light 15h 46m
Length of Day
14h 42m
Waxing Gibbous, 97% of the Moon is Illuminated
May 23
Waxing Gibbous
May 25
Full
May 31
Last Quarter
Jun 8
New
Jun 16
First Quarter

Hourly Weather History & Observations

Time (EDT) Temp. Dew Point Humidity Pressure Visibility Wind Dir Wind Speed Gust Speed Precip Events Conditions
12:51 AM 70.0 °F 63.0 °F 78% 29.88 in 10.0 mi South 8.1 mph - N/A   Mostly Cloudy
1:51 AM 68.0 °F 63.0 °F 84% 29.86 in 10.0 mi SSE 10.4 mph - N/A   Scattered Clouds
2:51 AM 66.0 °F 61.0 °F 84% 29.84 in 10.0 mi SSE 6.9 mph - N/A   Scattered Clouds
3:51 AM 66.0 °F 62.1 °F 87% 29.85 in 10.0 mi SSE 3.5 mph - N/A   Scattered Clouds
4:51 AM 66.0 °F 62.1 °F 87% 29.86 in 10.0 mi South 6.9 mph - N/A   Overcast
5:51 AM 66.0 °F 62.1 °F 87% 29.87 in 8.0 mi South 4.6 mph - N/A   Overcast
6:51 AM 68.0 °F 63.0 °F 84% 29.88 in 8.0 mi South 6.9 mph - N/A   Overcast
7:45 AM 69.8 °F 64.4 °F 83% 29.89 in 10.0 mi South 8.1 mph - 0.00 in   Overcast
7:51 AM 70.0 °F 64.9 °F 84% 29.88 in 9.0 mi South 9.2 mph - 0.00 in Rain Light Rain
8:51 AM 69.1 °F 64.9 °F 87% 29.89 in 9.0 mi South 8.1 mph - 0.00 in   Overcast
9:31 AM 73.4 °F 64.4 °F 73% 29.89 in 9.0 mi South 8.1 mph - N/A   Mostly Cloudy
9:51 AM 75.9 °F 66.0 °F 71% 29.88 in 10.0 mi South 8.1 mph - N/A   Mostly Cloudy
10:51 AM 79.0 °F 64.9 °F 62% 29.88 in 10.0 mi South 11.5 mph 16.1 mph N/A   Mostly Cloudy
11:51 AM 77.0 °F 64.0 °F 64% 29.87 in 10.0 mi SSE 15.0 mph 20.7 mph N/A   Mostly Cloudy
12:51 PM 77.0 °F 64.0 °F 64% 29.85 in 10.0 mi South 16.1 mph 23.0 mph N/A   Mostly Cloudy
1:51 PM 79.0 °F 63.0 °F 58% 29.83 in 10.0 mi South 16.1 mph 23.0 mph N/A   Mostly Cloudy
2:51 PM 72.0 °F 64.9 °F 78% 29.82 in 10.0 mi South 17.3 mph 23.0 mph 0.01 in   Overcast
3:07 PM 69.8 °F 64.4 °F 83% 29.84 in 5.0 mi South 18.4 mph 27.6 mph 0.00 in Rain , Thunderstorm Light Thunderstorms and Rain
3:51 PM 68.0 °F 64.0 °F 87% 29.82 in 5.0 mi South 13.8 mph - 0.19 in Rain , Thunderstorm Light Thunderstorms and Rain
4:17 PM 68.0 °F 62.6 °F 83% 29.84 in 5.0 mi South 11.5 mph - 0.04 in Rain , Thunderstorm Light Thunderstorms and Rain
4:37 PM 66.2 °F 62.6 °F 88% 29.82 in 1.0 mi South 11.5 mph - 0.21 in Rain , Thunderstorm Light Thunderstorms and Rain
4:45 PM 66.2 °F 62.6 °F 88% 29.82 in 4.0 mi SSE 12.7 mph - 0.33 in Rain Light Rain
4:51 PM 66.9 °F 63.0 °F 87% 29.82 in 4.0 mi SSE 13.8 mph - 0.33 in Rain Light Rain
4:58 PM 66.2 °F 62.6 °F 88% 29.82 in 7.0 mi South 13.8 mph 20.7 mph 0.00 in Rain Light Rain
5:51 PM 66.9 °F 64.0 °F 90% 29.81 in 7.0 mi South 10.4 mph - 0.00 in Rain Light Rain
6:20 PM 68.0 °F 62.6 °F 83% 29.81 in 10.0 mi South 8.1 mph - 0.00 in Rain Light Rain
6:42 PM 66.2 °F 62.6 °F 88% 29.80 in 10.0 mi South 8.1 mph - 0.00 in Rain Light Rain
6:51 PM 66.9 °F 62.1 °F 84% 29.80 in 10.0 mi South 13.8 mph - 0.00 in Rain Light Rain
7:10 PM 66.2 °F 62.6 °F 88% 29.80 in 7.0 mi South 13.8 mph 21.9 mph 0.00 in Thunderstorm Thunderstorm
7:47 PM 66.2 °F 62.6 °F 88% 29.81 in 8.0 mi South 8.1 mph - 0.00 in   Overcast
7:51 PM 66.9 °F 63.0 °F 87% 29.81 in 8.0 mi South 6.9 mph - 0.00 in   Overcast
8:51 PM 64.9 °F 62.1 °F 90% 29.81 in 10.0 mi South 10.4 mph 16.1 mph N/A   Mostly Cloudy
9:51 PM 64.0 °F 61.0 °F 90% 29.80 in 10.0 mi South 10.4 mph - N/A   Overcast
10:02 PM 64.4 °F 60.8 °F 88% 29.79 in 10.0 mi South 10.4 mph - N/A   Overcast
10:38 PM 66.2 °F 62.6 °F 88% 29.79 in 10.0 mi South 8.1 mph 16.1 mph N/A   Overcast
10:51 PM 64.0 °F 61.0 °F 90% 29.78 in 10.0 mi South 12.7 mph - N/A   Overcast
11:30 PM 64.4 °F 60.8 °F 88% 29.77 in 10.0 mi South 13.8 mph - N/A   Overcast
11:51 PM 63.0 °F 60.1 °F 90% 29.76 in 10.0 mi South 10.4 mph 18.4 mph N/A   Overcast